Location: Bennemühlen
(52.5740°N, 9.7135°E)
Time: 00:55:37
(UTC+00:00)

Cosmos 2221 - Pass Details

Date: 19 May 2025
Orbit: 572 x 593 km, 82.5° (Epoch: 15 June)

Event Time Altitude Azimuth Distance (km) Brightness Sun altitude
Exits shadow 20:01:12 - 126° (SE) 2,125 4.6 -5.9°
Reaches altitude 10° 20:02:07 10° 116° (ESE) 1,894 4.5 -6.0°
Maximum altitude 20:04:25 15° 83° (E) 1,617 4.4 -6.2°
Drops below altitude 10° 20:06:42 10° 49° (NE) 1,897 5.0 -6.5°
Sets 20:09:44 0° 26° (NNE) 2,799 6.2 -6.8°
